Погода в Уборке

Россия / Приморский край     44°23′47″N   134°05′27″E
темп.,
°C
ветер,
м/с
пор.,
м/с
влажн.,
%
обл.,
%
осадки,
мм/ч
давл.,
гПа
погр.,
м
19 июня, сб
сб1901:00+12вюв219790 0.0 100225
04:00+11вюв2298100 0.0 100249
07:00+13в2796100 0.0 1003541
10:00+13в2694100 0.3 1003585
13:00+14в2588100 0.3 1003529
16:00+13юв268976 1.0 1002557
19:00+15вюв3668100 0.0 1002661
22:00+9вюв1195100 0.0 100319
20 июня, вс
вс2001:00+9вюв1196100 0.0 100440
04:00+10в1388100 0.1 1003170
07:00+9в1397100 0.8 1004171
10:00+10вюв1298100 1.4 1004155
13:00+10всв1298100 2.1 1005225
16:00+11в1397100 3.6 1004330
19:00+12в1196100 0.0 1005133
22:00+10всв2397100 0.1 100696
21 июня, пн
пн2101:00+9всв2296100 0.1 100663
04:00+8св1298100 0.3 100767
07:00+8св1197100 0.1 100752
10:00+10св1291100 0.1 1008173
13:00+11всв1379100 0.0 1008390
16:00+11вюв1285100 0.1 1008241
19:00+10вюв1195100 0.3 100939
22:00+9вюв129794 0.6 100944
22 июня, вт
вт2201:00+9всв1198100 0.3 101021
04:00+9вюв1197100 0.3 101016
07:00+10вюв1196100 0.0 101165
10:00+16вюв136672 0.0 1010542
13:00+17юв235987 0.0 1010749
16:00+22ююв234625 0.0 10091502
19:00+19в126948 0.1 1009218
22:00+13юв11895 0.1 101010
23 июня, ср
ср2301:00+10ююв119534 0.0 101110
04:00+9ююв11965 0.0 101110
07:00+12ю11915 0.0 101269
10:00+21сз11600 0.0 1011713
13:00+25ссз22430 0.0 10101980
16:00+26с223588 0.0 10082540
19:00+23ссз2360100 0.0 1009264
22:00+15ю11922 0.7 101111